(12609) Apollodoros = 2155 P-L = 1997 GY11

Discovered at Palomar on 1960-09-24 by C. J. van Houten, I. van Houten-Groeneveld, and T. Gehrels.
(12609) Apollodoros = 2155 P-L

Apollodoros of Athens (c. 180 B.C.-c. 110 B.C.), a universal scholar and stoic, was author of a much used Chronika. [Ref: Minor Planet Circ. 63640]

Orbit

Orbit type: Main Belt

Note: WebGL enabled browser required.

epoch2024-03-31.0
epoch JD2460400.5
perihelion date2021-02-16.03909
perihelion JD2459261.53910
argument of perihelion (°)31.42447
ascending node (°)299.76941
inclination (°)0.87524
eccentricity0.1829241
perihelion distance (AU)2.5488828
Tisserand w.r.t. Jupiter3.2
ΔV w.r.t. Earth (km/sec)10.0
semimajor axis (AU)3.1195179
mean anomaly (°)203.74241
mean daily motion (°/day)0.17888450
aphelion distance (AU)3.690
period (years)5.51
P-vector [x]0.87620242
P-vector [y]-0.44528187
P-vector [z]-0.18437291
Q-vector [x]0.48176084
Q-vector [y]0.79871815
Q-vector [z]0.36049385
absolute magnitude14.26
phase slope0.15
uncertainty0
referenceMPEC 2024-E179
observations used1557
oppositions23
arc length (days)23173
first opposition used1960
last opposition used2024
residual rms (arc-secs)0.67
perturbers coarse indicatorM-v
perturbers precise indicator003Ek
first observation date used1960-09-24.0
last observation date used2024-03-05.0
computer nameMPCLINUX
JD of orbit computation2456847.600592
perihelion JD uncertainty (days)6.4524E-05
argument of perihelion uncertainty (°)2.9155E-04
ascending node uncertainty (°)2.9137E-04
inclination uncertainty (°)3.6588E-06
eccentricity uncertainty 3.9549E-08
perihelion distance uncertainty (AU)1.2644E-07
Minimum Orbit Intersection Distances (in AU)
for orbit epoch: 2460400.5, reference: E2024-G51
Mercury2.14429
Venus1.82309
Earth1.53809
Mars1.16903
Jupiter1.66418
Saturn5.51364
Uranus14.7606
Neptune26.6174

Observations

1607 total observations over interval: 1960 09 24.42500 – 2024 03 05.304021
These data are available for download (format description).

Date (UT) J2000 RA J2000 Dec Magn Location Ref
1960 09 24.42500 01 01 51.29 +08 01 00.6 18.3   675 – Palomar Mountain MPS 284741
1960 09 24.45000 01 01 50.17 +08 00 54.7 18.5   675 – Palomar Mountain MPS 284741
1960 09 24.45000 01 01 50.17 +08 00 53.7 18.3   675 – Palomar Mountain MPS 4260
1960 09 26.34653 01 00 28.13 +07 52 57.2 18.8   675 – Palomar Mountain MPS 284741
1960 09 26.37014 01 00 27.05 +07 52 51.0 18.5   675 – Palomar Mountain MPS 284741
1960 09 28.42778 00 58 55.61 +07 43 53.8 18.0   675 – Palomar Mountain MPS 284741
1960 09 28.45139 00 58 54.60 +07 43 48.6 18.3   675 – Palomar Mountain MPS 284741
1960 09 29.42084 00 58 11.04 +07 39 30.8 18.2 V 675 – Palomar Mountain MPS 284741
1960 09 29.44514 00 58 09.92 +07 39 24.0 17.8 V 675 – Palomar Mountain MPS 284741
1960 10 25.35209 00 39 28.92 +05 42 07.5 18.4 V 675 – Palomar Mountain MPS 284741
1960 10 25.37570 00 39 28.10 +05 42 01.8 18.4 V 675 – Palomar Mountain MPS 284741
1960 10 26.34723 00 38 54.24 +05 38 15.2 19.2   675 – Palomar Mountain MPS 284741
1960 10 26.36841 00 38 53.46 +05 38 10.6 19.3   675 – Palomar Mountain MPS 284741
1993 08 15.04861 22 46 25.77 -06 57 52.5 18.5   010 – Caussols MPS 18800
1993 08 15.05972 22 46 25.31 -06 57 53.6   010 – Caussols MPS 18800
1993 08 15.07083 22 46 24.92 -06 57 57.3   010 – Caussols MPS 18800
1996 02 10.19934 09 34 59.82 +13 56 00.5 19.5 V 691 – Steward Observatory, Kitt Peak-Spacewatch MPS 6442
1996 02 10.22076 09 34 58.82 +13 56 05.0   691 – Steward Observatory, Kitt Peak-Spacewatch MPS 6442
1996 02 10.24288 09 34 57.75 +13 56 09.8   691 – Steward Observatory, Kitt Peak-Spacewatch MPS 6442
1997 04 03.28437 12 58 20.52 -07 30 51.7 19.4 V 704 – Lincoln Laboratory ETS, New Mexico MPC 29529
1997 04 03.39866 12 58 15.26 -07 30 22.8   704 – Lincoln Laboratory ETS, New Mexico MPC 29529
1997 04 05.23456 12 56 54.12 -07 22 05.6 19.2 V 704 – Lincoln Laboratory ETS, New Mexico MPC 29529
1997 04 05.36012 12 56 48.46 -07 21 30.9   704 – Lincoln Laboratory ETS, New Mexico MPC 29529
1997 04 06.15506 12 56 13.29 -07 17 52.9 18.7 V 704 – Lincoln Laboratory ETS, New Mexico MPC 29529
1997 04 06.22211 12 56 10.32 -07 17 35.5   704 – Lincoln Laboratory ETS, New Mexico MPC 29529
1997 04 07.16396 12 55 28.51 -07 13 18.3 19.4 V 704 – Lincoln Laboratory ETS, New Mexico MPC 29529
1997 04 07.22357 12 55 25.76 -07 13 02.7   704 – Lincoln Laboratory ETS, New Mexico MPC 29529
1999 10 03.28981 02 28 34.90 +16 03 11.2 18.6   704 – Lincoln Laboratory ETS, New Mexico MPS 6955
1999 10 03.30098 02 28 34.52 +16 03 09.2 18.6   704 – Lincoln Laboratory ETS, New Mexico MPS 6955
1999 10 03.31217 02 28 34.10 +16 03 08.0 18.5   704 – Lincoln Laboratory ETS, New Mexico MPS 6955
1999 10 03.32334 02 28 33.71 +16 03 05.9 18.2   704 – Lincoln Laboratory ETS, New Mexico MPS 6955
1999 10 03.33450 02 28 33.31 +16 03 04.2 18.2   704 – Lincoln Laboratory ETS, New Mexico MPS 6955
1999 10 06.30937 02 26 47.27 +15 55 18.7 17.9   704 – Lincoln Laboratory ETS, New Mexico MPS 6955
1999 10 06.32262 02 26 46.73 +15 55 16.5 18.3   704 – Lincoln Laboratory ETS, New Mexico MPS 6956
1999 10 06.33585 02 26 46.20 +15 55 14.3 18.3   704 – Lincoln Laboratory ETS, New Mexico MPS 6956
1999 10 06.34908 02 26 45.69 +15 55 12.1 18.3   704 – Lincoln Laboratory ETS, New Mexico MPS 6956
1999 10 06.36231 02 26 45.15 +15 55 09.8 18.3   704 – Lincoln Laboratory ETS, New Mexico MPS 6956
1999 10 10.27428 02 24 10.88 +15 43 28.0 18.1   704 – Lincoln Laboratory ETS, New Mexico MPS 6956
1999 10 10.29038 02 24 10.22 +15 43 24.8 18.2   704 – Lincoln Laboratory ETS, New Mexico MPS 6956
1999 10 10.30620 02 24 09.56 +15 43 21.2 18.4   704 – Lincoln Laboratory ETS, New Mexico MPS 6956
1999 10 10.32110 02 24 08.92 +15 43 19.0 18.5   704 – Lincoln Laboratory ETS, New Mexico MPS 6956
1999 10 10.33707 02 24 08.24 +15 43 15.8 18.4   704 – Lincoln Laboratory ETS, New Mexico MPS 6956
1999 10 15.40737 02 20 27.09 +15 25 54.0 18.3   704 – Lincoln Laboratory ETS, New Mexico MPS 6956
1999 10 15.42286 02 20 26.38 +15 25 50.6 18.5   704 – Lincoln Laboratory ETS, New Mexico MPS 6956
1999 10 15.43816 02 20 25.66 +15 25 46.9 18.2   704 – Lincoln Laboratory ETS, New Mexico MPS 6956
1999 10 15.45352 02 20 24.92 +15 25 43.9 18.4   704 – Lincoln Laboratory ETS, New Mexico MPS 6956
1999 10 15.46887 02 20 24.23 +15 25 40.4 18.6   704 – Lincoln Laboratory ETS, New Mexico MPS 6956
1999 10 21.25201 02 15 52.34 +15 03 24.5 17.7   704 – Lincoln Laboratory ETS, New Mexico MPS 6956
1999 10 21.26745 02 15 51.54 +15 03 20.7 17.6   704 – Lincoln Laboratory ETS, New Mexico MPS 6956
1999 10 21.28285 02 15 50.75 +15 03 16.7 17.6   704 – Lincoln Laboratory ETS, New Mexico MPS 6956
1999 10 21.29836 02 15 50.01 +15 03 13.3 17.8   704 – Lincoln Laboratory ETS, New Mexico MPS 6956
1999 10 21.31380 02 15 49.25 +15 03 09.6 18.6   704 – Lincoln Laboratory ETS, New Mexico MPS 6956
1999 11 01.27269 02 06 54.22 +14 16 54.2 18.1 R 699 – Lowell Observatory-LONEOS MPS 8288
1999 11 01.30326 02 06 52.76 +14 16 46.1   699 – Lowell Observatory-LONEOS MPS 8288
1999 11 01.33384 02 06 51.16 +14 16 37.8   699 – Lowell Observatory-LONEOS MPS 8288
1999 11 03.38485 02 05 12.95 +14 07 47.9 18.0 R 703 – Catalina Sky Survey MPS 7514
1999 11 03.40147 02 05 12.19 +14 07 42.2 18.3 R 703 – Catalina Sky Survey MPS 7514
1999 11 03.41812 02 05 11.32 +14 07 38.5 18.9 R 703 – Catalina Sky Survey MPS 7514
1999 11 03.43477 02 05 10.52 +14 07 34.3 18.0 R 703 – Catalina Sky Survey MPS 7514
1999 11 04.24696 02 04 32.57 +14 04 06.5 18.4   704 – Lincoln Laboratory ETS, New Mexico MPS 7514
1999 11 04.26344 02 04 31.73 +14 04 01.6 19.0   704 – Lincoln Laboratory ETS, New Mexico MPS 7514
1999 11 04.28002 02 04 30.99 +14 03 57.2 18.6   704 – Lincoln Laboratory ETS, New Mexico MPS 7514
1999 11 04.29690 02 04 30.17 +14 03 53.0 18.7   704 – Lincoln Laboratory ETS, New Mexico MPS 7514
1999 11 04.31349 02 04 29.37 +14 03 48.2 18.7   704 – Lincoln Laboratory ETS, New Mexico MPS 7514
1999 11 05.23605 02 03 46.41 +13 59 53.0 17.9   704 – Lincoln Laboratory ETS, New Mexico MPS 7514
1999 11 05.25225 02 03 45.63 +13 59 48.6 18.3   704 – Lincoln Laboratory ETS, New Mexico MPS 7514
1999 11 05.26854 02 03 44.84 +13 59 44.7 18.3   704 – Lincoln Laboratory ETS, New Mexico MPS 7514
1999 11 05.28477 02 03 44.04 +13 59 40.4 18.1   704 – Lincoln Laboratory ETS, New Mexico MPS 7514
1999 11 05.30098 02 03 43.28 +13 59 36.4 18.4   704 – Lincoln Laboratory ETS, New Mexico MPS 7514
1999 11 14.22221 01 57 18.51 +13 23 16.6 18.8   704 – Lincoln Laboratory ETS, New Mexico MPS 7514
1999 11 14.23692 01 57 17.90 +13 23 12.5 18.4   704 – Lincoln Laboratory ETS, New Mexico MPS 7514
1999 11 14.25163 01 57 17.30 +13 23 08.6 18.5   704 – Lincoln Laboratory ETS, New Mexico MPS 7514
1999 11 14.26607 01 57 16.70 +13 23 05.8 18.5   704 – Lincoln Laboratory ETS, New Mexico MPS 7514
1999 11 14.28057 01 57 16.09 +13 23 01.8 18.7   704 – Lincoln Laboratory ETS, New Mexico MPS 7514
1999 11 15.14683 01 56 42.83 +13 19 46.6 18.4 V 691 – Steward Observatory, Kitt Peak-Spacewatch MPS 7514
1999 11 15.16852 01 56 41.96 +13 19 41.8 18.3 V 691 – Steward Observatory, Kitt Peak-Spacewatch MPS 7514
1999 11 15.19324 01 56 40.98 +13 19 36.2 18.2 V 691 – Steward Observatory, Kitt Peak-Spacewatch MPS 7514
1999 11 16.14924 01 56 04.88 +13 16 02.8 18.3   704 – Lincoln Laboratory ETS, New Mexico MPS 7514
1999 11 16.16389 01 56 04.40 +13 16 00.5 18.2   704 – Lincoln Laboratory ETS, New Mexico MPS 7514
1999 11 16.17888 01 56 03.84 +13 15 57.2 18.1   704 – Lincoln Laboratory ETS, New Mexico MPS 7514
1999 11 16.20793 01 56 02.75 +13 15 50.4 18.3   704 – Lincoln Laboratory ETS, New Mexico MPS 7514
1999 12 04.15884 01 48 15.18 +12 26 16.9 18.4 R 699 – Lowell Observatory-LONEOS MPS 8288
1999 12 04.18684 01 48 14.79 +12 26 13.3   699 – Lowell Observatory-LONEOS MPS 8288
1999 12 04.21483 01 48 14.34 +12 26 09.7   699 – Lowell Observatory-LONEOS MPS 8288
2002 01 21.51216 11 33 09.45 +02 07 53.6 20.4 V 691 – Steward Observatory, Kitt Peak-Spacewatch MPS 47995
